Regional Weather Roundup
Issued by NWS Cleveland, OH

Home | Current Version | Previous Version | Text Only | Print | Product List | Glossary Off
Versions: 1 2 3 4 5 6 7 8 9 10 11 12 13 14 15 16 17 18 19 20 21 22 23 24 25 26 27 28 29 30 31 32 33 34 35 36 37 38 39 40 41 42 43 44 45 46 47 48 49 50

000
ASUS41 KCLE 270612
RWRCLE
OHIO REGIONAL WEATHER ROUNDUP
NATIONAL WEATHER SERVICE WILMINGTON, OH
200 AM EDT SAT AUG 27 2016

NOTE: "FAIR" INDICATES FEW OR NO CLOUDS BELOW 12,000 FEET WITH NO
SIGNIFICANT WEATHER AND/OR OBSTRUCTIONS TO VISIBILITY.

OHZ001>008-015>018-024>027-034-035-043-044-270700-
   NORTHWEST OHIO

CITY           SKY/WX    TMP DP  RH WIND       PRES   REMARKS
DEFIANCE       FAIR      73  65  75 CALM      30.14R
FINDLAY        FAIR      73  60  63 E3        30.13S
TOLEDO EXPRESS FAIR      66  66 100 CALM      30.13F
TOLEDO EXEC    FAIR      70  66  87 E3        30.14F
LIMA           FAIR      71  67  87 E7        30.14S
$$

OHZ009>014-019>023-028>033-038-089-270700-
   NORTHEAST OHIO

CITY           SKY/WX    TMP DP  RH WIND       PRES   REMARKS
CLE-HOPKINS    NOT AVBL
CLE-LAKEFRONT  FAIR      72  59  63 CALM      30.14F
CUY CO. ARPT   NOT AVBL
LORAIN-ELYRIA  FAIR      63  58  83 CALM      30.17R
ASHTABULA      FAIR      60  60 100 E3        30.18F
AKRON-CANTON   FAIR      70  60  70 E7        30.17F
WOOSTER        FAIR      64  59  83 CALM      30.17F
MANSFIELD      FAIR      69  57  65 CALM      30.17S
YOUNGSTOWN     FAIR      64  60  87 E7        30.18S
$$

OHZ042-051>053-060>062-070>072-077>081-270700-
  SOUTHWEST OHIO

CITY           SKY/WX    TMP DP  RH WIND       PRES   REMARKS
CINC-COVINGTON CLOUDY    75  72  90 CALM      30.11S
CINC-LUNKEN    FAIR      72  72 100 CALM      30.10S FOG
HAMILTON       FAIR      70  68  93 CALM      30.12S
DAYTON         FAIR      72  70  93 N3        30.14S
WRIGHT-PAT AFB FAIR      74  72  94 CALM      30.12S
DAYTON GENERAL FAIR      74  69  85 E6        30.12S
WILMINGTON     FAIR      73  71  93 E3        30.13S
$$

OHZ036-037-039>041-045>050-054>059-063>069-073>076-082>088-270700-
  CENTRAL AND SOUTHEAST OHIO

CITY           SKY/WX    TMP DP  RH WIND       PRES   REMARKS
COLUMBUS       NOT AVBL
OSU AIRPORT    FAIR      73  67  81 E3        30.13S
BOLTON FIELD   FAIR      74  68  82 E3        30.14S
RICKENBACK AFB FAIR      72  69  88 CALM      30.12F
NEWARK         FAIR      69  67  93 CALM      30.14R
MARION         FAIR      70  61  73 CALM      30.15S
LANCASTER      FAIR      71  69  93 CALM      30.14R
ZANESVILLE     FAIR      72  69  90 CALM      30.14S
NEW PHILLY     FAIR      68  62  81 CALM      30.16S
$$




USA.gov is the U.S. government's official web portal to all federal, state and local government web resources and services.